User: anonymous   Login
Location: Unspecified
(0.0000°N, 0.0000°E)
Time: 14:53:01
(UTC+00:00)
Language:

Transit 2A Rocket - Orbit

View from above orbital plane
View from above orbital plane
View from above satellite
View from above satellite

Ground track
Ground track

The orbit data is extracted from the following two-line orbital elements,

1 00047U 60007C   17054.47585243 -.00000013  00000-0  22149-4 0  9996
2 00047  66.6664 149.8645 0220860 109.0020 253.5154 14.41896934960676
Epoch (UTC): 23 February 2017 11:25:13
Eccentricity: 0.0220860
inclination: 66.6664°
perigee height: 595 km
apogee height: 910 km
right ascension of ascending node: 149.8645°
argument of perigee: 109.0020°
revolutions per day: 14.41896934
mean anomaly at epoch: 253.5154°
orbit number at epoch: 96067

The dashed part of the orbit path shows where the satellite is in the earth's shadow,  

DLR